Location: Baix
(44.7118°N, 4.7648°E)
Time: 03:08:22
(UTC+00:00)

Lacrosse 4 Rocket - Pass Details

Date: 07 August 2020
Orbit: 544 x 615 km, 68.0° (Epoch: 27 September)

Event Time Altitude Azimuth Distance (km) Brightness Sun altitude
Exits shadow 00:12:41 40° 9° (N) 860 2.7 -28.7°
Drops below altitude 10° 00:15:31 10° 25° (NNE) 1,880 4.9 -28.6°
Sets 00:17:44 0° 28° (NNE) 2,770 6.0 -28.5°
